When you browse on this site, cookies collect data to enhance your experience and personalize the content and advertising you see.
Visit our Privacy Policy to learn more. By continuing to use the site, you agree to this use of cookies and data.
  • In Österreich
  • Länderverzeichnis
  • Für 7 Tage
  • Wassertemperatur
  • Wetterkarte
  • News
  • Widgets
  • user-avatar
    Anmelden

    Stündliche Wetter Hlukhivets'

    Heute, 23 September, Montag

    Zeit Temperatur Niederschläge Wind Luftdruck Luftfeuchtigkeit
    00:00 +9°C° 0 mm 0 m/S 733 mmHg 76%
    01:00 +9°C° 0 mm 1 m/S 733 mmHg 76%
    02:00 +8°C° 0 mm 0 m/S 733 mmHg 77%
    03:00 +7°C° 0 mm 0 m/S 733 mmHg 77%
    04:00 +8°C° 0 mm 1 m/S 733 mmHg 77%
    05:00 +8°C° 0 mm 1 m/S 733 mmHg 77%
    06:00 +9°C° 0 mm 1 m/S 733 mmHg 72%
    07:00 +10°C° 0 mm 1 m/S 733 mmHg 68%
    08:00 +12°C° 0 mm 1 m/S 734 mmHg 63%
    09:00 +14°C° 0 mm 1 m/S 734 mmHg 58%
    10:00 +16°C° 0 mm 2 m/S 734 mmHg 53%
    11:00 +18°C° 0 mm 3 m/S 734 mmHg 47%
    12:00 +19°C° 0 mm 3 m/S 734 mmHg 46%
    13:00 +20°C° 0 mm 3 m/S 733 mmHg 44%
    14:00 +20°C° 0 mm 3 m/S 733 mmHg 43%
    15:00 +20°C° 0 mm 3 m/S 733 mmHg 48%
    16:00 +19°C° 0 mm 3 m/S 733 mmHg 53%
    17:00 +18°C° 0 mm 3 m/S 733 mmHg 57%
    18:00 +16°C° 0 mm 3 m/S 733 mmHg 67%
    19:00 +13°C° 0 mm 4 m/S 733 mmHg 76%
    20:00 +11°C° 0 mm 4 m/S 734 mmHg 86%
    21:00 +10°C° 0 mm 4 m/S 734 mmHg 88%
    22:00 +9°C° 0 mm 3 m/S 734 mmHg 89%
    23:00 +8°C° 0 mm 3 m/S 734 mmHg 91%

    Morgen, 24 September, Dienstag

    Zeit Temperatur Niederschläge Wind Luftdruck Luftfeuchtigkeit
    00:00 +7°C° 0 mm 3 m/S 734 mmHg 91%
    01:00 +7°C° 0 mm 3 m/S 734 mmHg 91%
    02:00 +5°C° 0 mm 3 m/S 734 mmHg 91%
    03:00 +5°C° 0 mm 3 m/S 734 mmHg 92%
    04:00 +4°C° 0 mm 3 m/S 733 mmHg 93%
    05:00 +5°C° 0 mm 2 m/S 733 mmHg 93%
    06:00 +5°C° 0 mm 3 m/S 733 mmHg 89%
    07:00 +7°C° 0 mm 3 m/S 733 mmHg 84%
    08:00 +8°C° 0 mm 3 m/S 734 mmHg 80%
    09:00 +10°C° 0 mm 3 m/S 734 mmHg 72%
    10:00 +13°C° 0 mm 3 m/S 734 mmHg 65%
    11:00 +16°C° 0 mm 3 m/S 734 mmHg 58%
    12:00 +17°C° 0 mm 3 m/S 733 mmHg 54%
    13:00 +19°C° 0 mm 3 m/S 733 mmHg 51%
    14:00 +20°C° 0 mm 3 m/S 733 mmHg 48%
    15:00 +19°C° 0 mm 3 m/S 732 mmHg 51%
    16:00 +19°C° 0 mm 3 m/S 732 mmHg 53%
    17:00 +19°C° 0 mm 3 m/S 732 mmHg 56%
    18:00 +16°C° 0 mm 2 m/S 732 mmHg 63%
    19:00 +14°C° 0 mm 2 m/S 732 mmHg 70%
    20:00 +12°C° 0 mm 2 m/S 732 mmHg 78%
    21:00 +10°C° 0 mm 2 m/S 732 mmHg 80%
    22:00 +10°C° 0 mm 2 m/S 732 mmHg 83%
    23:00 +9°C° 0 mm 2 m/S 732 mmHg 85%

    übermorgen, 25 September, Mittwoch

    Zeit Temperatur Niederschläge Wind Luftdruck Luftfeuchtigkeit
    00:00 +9°C° 0 mm 2 m/S 732 mmHg 86%
    01:00 +8°C° 0 mm 2 m/S 732 mmHg 87%
    02:00 +8°C° 0 mm 2 m/S 731 mmHg 88%
    03:00 +8°C° 0 mm 2 m/S 731 mmHg 88%
    04:00 +7°C° 0 mm 2 m/S 731 mmHg 89%
    05:00 +7°C° 0 mm 2 m/S 731 mmHg 90%
    06:00 +8°C° 0 mm 2 m/S 731 mmHg 86%
    07:00 +9°C° 0 mm 2 m/S 731 mmHg 82%
    08:00 +10°C° 0 mm 2 m/S 731 mmHg 78%
    09:00 +13°C° 0 mm 2 m/S 731 mmHg 71%
    10:00 +15°C° 0 mm 2 m/S 731 mmHg 63%
    11:00 +17°C° 0 mm 2 m/S 731 mmHg 56%
    12:00 +18°C° 0 mm 2 m/S 731 mmHg 56%
    13:00 +18°C° 0 mm 2 m/S 731 mmHg 57%
    14:00 +19°C° 0 mm 3 m/S 730 mmHg 57%
    15:00 +17°C° 0.1 mm 2 m/S 730 mmHg 65%
    16:00 +16°C° 0.1 mm 2 m/S 730 mmHg 74%
    17:00 +14°C° 0.1 mm 2 m/S 730 mmHg 82%
    18:00 +14°C° 0 mm 1 m/S 730 mmHg 83%
    19:00 +14°C° 0 mm 1 m/S 730 mmHg 83%
    20:00 +13°C° 0 mm 1 m/S 730 mmHg 84%
    21:00 +13°C° 0 mm 1 m/S 730 mmHg 85%
    22:00 +13°C° 0 mm 1 m/S 730 mmHg 86%
    23:00 +12°C° 0 mm 1 m/S 730 mmHg 88%

    26 September, Donnerstag

    Zeit Temperatur Niederschläge Wind Luftdruck Luftfeuchtigkeit
    00:00 +12°C° 0 mm 1 m/S 730 mmHg 89%
    01:00 +12°C° 0 mm 1 m/S 729 mmHg 90%
    02:00 +11°C° 0 mm 1 m/S 729 mmHg 90%
    03:00 +11°C° 0.1 mm 1 m/S 729 mmHg 91%
    04:00 +11°C° 0.1 mm 1 m/S 730 mmHg 92%
    05:00 +11°C° 0.1 mm 1 m/S 730 mmHg 93%
    06:00 +12°C° 0.1 mm 1 m/S 730 mmHg 91%
    07:00 +13°C° 0.1 mm 2 m/S 730 mmHg 89%
    08:00 +13°C° 0.1 mm 2 m/S 730 mmHg 87%
    09:00 +15°C° 0 mm 2 m/S 730 mmHg 81%
    10:00 +16°C° 0 mm 3 m/S 731 mmHg 74%
    11:00 +18°C° 0 mm 3 m/S 731 mmHg 68%
    12:00 +18°C° 0 mm 4 m/S 731 mmHg 66%
    13:00 +18°C° 0 mm 4 m/S 731 mmHg 65%
    14:00 +18°C° 0 mm 4 m/S 731 mmHg 64%
    15:00 +18°C° 0 mm 4 m/S 731 mmHg 68%
    16:00 +17°C° 0 mm 3 m/S 731 mmHg 71%
    17:00 +16°C° 0 mm 3 m/S 731 mmHg 75%
    18:00 +14°C° 0 mm 3 m/S 731 mmHg 78%
    19:00 +14°C° 0 mm 2 m/S 731 mmHg 81%
    20:00 +14°C° 0 mm 2 m/S 731 mmHg 83%
    21:00 +14°C° 0 mm 2 m/S 732 mmHg 84%
    22:00 +13°C° 0 mm 2 m/S 732 mmHg 84%
    23:00 +13°C° 0 mm 2 m/S 732 mmHg 84%

    27 September, Freitag

    Zeit Temperatur Niederschläge Wind Luftdruck Luftfeuchtigkeit
    00:00 +13°C° 0.1 mm 2 m/S 732 mmHg 85%
    01:00 +13°C° 0.1 mm 2 m/S 733 mmHg 87%
    02:00 +13°C° 0.1 mm 2 m/S 733 mmHg 88%
    03:00 +13°C° 0 mm 2 m/S 733 mmHg 89%
    04:00 +12°C° 0 mm 2 m/S 733 mmHg 90%
    05:00 +12°C° 0 mm 2 m/S 733 mmHg 90%
    06:00 +12°C° 0 mm 2 m/S 733 mmHg 89%
    07:00 +12°C° 0 mm 2 m/S 733 mmHg 88%
    08:00 +12°C° 0 mm 2 m/S 733 mmHg 87%
    09:00 +14°C° 0 mm 2 m/S 734 mmHg 80%
    10:00 +16°C° 0 mm 2 m/S 734 mmHg 72%
    11:00 +18°C° 0 mm 2 m/S 735 mmHg 65%
    12:00 +18°C° 0 mm 2 m/S 734 mmHg 61%
    13:00 +19°C° 0 mm 2 m/S 734 mmHg 58%
    14:00 +20°C° 0 mm 2 m/S 734 mmHg 54%
    15:00 +20°C° 0 mm 2 m/S 734 mmHg 57%
    16:00 +19°C° 0 mm 2 m/S 734 mmHg 59%
    17:00 +19°C° 0 mm 2 m/S 734 mmHg 62%
    18:00 +18°C° 0 mm 1 m/S 734 mmHg 69%
    19:00 +15°C° 0 mm 1 m/S 734 mmHg 76%
    20:00 +12°C° 0 mm 0 m/S 734 mmHg 84%
    21:00 +13°C° 0 mm 1 m/S 735 mmHg 84%
    22:00 +13°C° 0 mm 1 m/S 735 mmHg 85%
    23:00 +12°C° 0 mm 1 m/S 735 mmHg 86%

    28 September, Samstag

    Zeit Temperatur Niederschläge Wind Luftdruck Luftfeuchtigkeit
    00:00 +12°C° 0 mm 1 m/S 735 mmHg 86%
    01:00 +12°C° 0 mm 2 m/S 735 mmHg 87%
    02:00 +12°C° 0 mm 2 m/S 735 mmHg 87%
    03:00 +12°C° 0 mm 2 m/S 735 mmHg 86%
    04:00 +12°C° 0 mm 2 m/S 735 mmHg 85%
    05:00 +12°C° 0 mm 2 m/S 735 mmHg 84%
    06:00 +13°C° 0 mm 2 m/S 735 mmHg 81%
    07:00 +13°C° 0 mm 2 m/S 735 mmHg 78%
    08:00 +14°C° 0 mm 2 m/S 735 mmHg 75%
    09:00 +14°C° 0 mm 3 m/S 735 mmHg 71%
    10:00 +17°C° 0 mm 3 m/S 735 mmHg 67%
    11:00 +18°C° 0 mm 3 m/S 736 mmHg 63%
    12:00 +20°C° 0 mm 3 m/S 735 mmHg 59%
    13:00 +21°C° 0 mm 4 m/S 735 mmHg 55%
    14:00 +22°C° 0 mm 4 m/S 735 mmHg 51%
    15:00 +22°C° 0.2 mm 3 m/S 735 mmHg 56%
    16:00 +21°C° 0.2 mm 3 m/S 734 mmHg 61%
    17:00 +20°C° 0.2 mm 3 m/S 734 mmHg 66%
    18:00 +18°C° 0.1 mm 3 m/S 734 mmHg 71%
    19:00 +17°C° 0.1 mm 2 m/S 734 mmHg 76%
    20:00 +15°C° 0.1 mm 2 m/S 734 mmHg 81%
    21:00 +15°C° 0.1 mm 2 m/S 735 mmHg 83%
    22:00 +15°C° 0.1 mm 2 m/S 735 mmHg 86%
    23:00 +15°C° 0.1 mm 1 m/S 735 mmHg 89%
    Mehr zeigen